Broomfield, CO

4:44 AM MDT on September 29, 2016 (GMT -0600)
Jeffco

Weather History for KBJC - December, 2012

Change the Weather History Date:

Saturday, December 8, 2012

  Actual Average Record
Temperature  
Mean Temperature 37 °F -  
Max Temperature 50 °F 44 °F 68 °F (1996)
Min Temperature 24 °F 25 °F 0 °F (2005)
Degree Days  
Heating Degree Days 28    
Moisture  
Dew Point 19 °F    
Average Humidity 59    
Maximum Humidity 86    
Minimum Humidity 12    
Precipitation  
Precipitation 0.00 in - - ()
Sea Level Pressure  
Sea Level Pressure 29.76 in    
Wind  
Wind Speed 6 mph (West)    
Max Wind Speed 32 mph    
Max Gust Speed 41 mph    
Visibility 10 miles    
Events Snow    
Averages and records for this station are not official NWS values.
T = Trace of Precipitation, MM = Missing Value Source: NWS Daily Summary

Daily Weather History Graph

Daily Weather History Graph

Search for Another Location

Airport or City:

Trip Planner

Search our weather history database for the weather conditions in past years. The results will help you decide how hot, cold, wet, or windy it might be!

Date:

Astronomy

Dec. 08, 2012 Rise Set
Actual Time 7:09 AM MST 4:35 PM MST
Civil Twilight 6:39 AM MST 5:05 PM MST
Nautical Twilight 6:05 AM MST 5:39 PM MST
Astronomical Twilight 5:32 AM MST 6:12 PM MST
Moon 1:37 AM MST (12/8) 1:06 PM MST (12/8)
Length of Visible Light 10h 26m
Length of Day
9h 25m
Waning Crescent, 27% of the Moon is Illuminated
Dec 8
Waning Crescent
Dec 13
New
Dec 19
First Quarter
Dec 28
Full
Jan 4
Last Quarter

Hourly Weather History & Observations

Time (MST) Temp. Windchill Dew Point Humidity Pressure Visibility Wind Dir Wind Speed Gust Speed Precip Events Conditions
12:15 AM 32.0 °F - 19.4 °F 60% 29.85 in 10.0 mi Calm Calm - N/A   Clear
12:33 AM 32.0 °F - 19.4 °F 60% 29.83 in 10.0 mi Calm Calm - N/A   Clear
12:53 AM 30.2 °F - 19.4 °F 64% 29.83 in 10.0 mi Calm Calm - N/A   Clear
1:14 AM 30.2 °F - 19.4 °F 64% 29.81 in 10.0 mi Calm Calm - N/A   Clear
1:35 AM 30.2 °F - 19.4 °F 64% 29.81 in 10.0 mi Calm Calm - N/A   Clear
1:52 AM 32.0 °F 28.7 °F 19.4 °F 60% 29.81 in 10.0 mi NW 3.5 mph - N/A   Clear
2:15 AM 30.2 °F 24.3 °F 19.4 °F 64% 29.81 in 10.0 mi NNW 5.8 mph - N/A   Clear
2:33 AM 30.2 °F 25.4 °F 19.4 °F 64% 29.80 in 10.0 mi NW 4.6 mph - N/A   Clear
2:53 AM 28.4 °F 20.4 °F 21.2 °F 74% 29.80 in 10.0 mi NW 8.1 mph - N/A   Clear
3:13 AM 28.4 °F 19.7 °F 19.4 °F 69% 29.79 in 10.0 mi NW 9.2 mph - N/A   Clear
3:33 AM 26.6 °F 21.2 °F 19.4 °F 74% 29.77 in 10.0 mi WNW 4.6 mph - N/A   Clear
3:53 AM 26.6 °F 22.6 °F 19.4 °F 74% 29.76 in 10.0 mi WNW 3.5 mph - N/A   Clear
4:13 AM 28.4 °F 19.1 °F 21.2 °F 74% 29.75 in 10.0 mi NW 10.4 mph - N/A   Clear
4:33 AM 28.4 °F 20.4 °F 21.2 °F 74% 29.75 in 10.0 mi NW 8.1 mph - N/A   Clear
4:53 AM 26.6 °F 20.0 °F 19.4 °F 74% 29.75 in 10.0 mi NW 5.8 mph - N/A   Clear
6:47 AM 24.8 °F 19.1 °F 17.6 °F 74% 29.72 in 30.0 mi West 4.6 mph - N/A   Scattered Clouds
7:46 AM 26.6 °F 22.6 °F 19.4 °F 74% 29.71 in 40.0 mi SSW 3.5 mph - N/A   Scattered Clouds
8:47 AM 32.0 °F - 21.2 °F 64% 29.71 in 60.0 mi Calm Calm - N/A   Scattered Clouds
9:53 AM 37.4 °F - 19.4 °F 48% 29.70 in 60.0 mi Calm Calm - N/A   Scattered Clouds
10:47 AM 44.6 °F - 15.8 °F 31% 29.68 in 60.0 mi Calm Calm - N/A   Scattered Clouds
10:56 AM 46.4 °F 39.5 °F 15.8 °F 29% 29.67 in 60.0 mi WSW 17.3 mph 25.3 mph N/A   Scattered Clouds
12:45 PM 48.2 °F - 14.0 °F 25% 29.63 in 50.0 mi West 23.0 mph 28.8 mph N/A   Scattered Clouds
12:55 PM 50.0 °F - -2.2 °F 12% 29.65 in 50.0 mi West 27.6 mph 34.5 mph N/A   Scattered Clouds
1:48 PM 48.2 °F - 10.4 °F 22% 29.62 in 50.0 mi West 18.4 mph 21.9 mph N/A   Mostly Cloudy
2:48 PM 48.2 °F - 6.8 °F 19% 29.64 in 50.0 mi WSW 23.0 mph 28.8 mph N/A   Mostly Cloudy
3:47 PM 44.6 °F 36.6 °F 10.4 °F 25% 29.67 in 50.0 mi West 19.6 mph 24.2 mph N/A   Mostly Cloudy
4:47 PM 41.0 °F 32.5 °F 15.8 °F 36% 29.66 in 50.0 mi WNW 17.3 mph 24.2 mph N/A   Mostly Cloudy
5:49 PM 39.2 °F 27.4 °F 21.2 °F 49% 29.69 in 30.0 mi West 29.9 mph 41.4 mph N/A   Mostly Cloudy
6:12 PM 37.4 °F 24.6 °F 19.4 °F 48% 29.69 in 30.0 mi West 32.2 mph 39.1 mph N/A   Mostly Cloudy
6:43 PM 37.4 °F 30.8 °F 19.4 °F 48% 29.74 in 30.0 mi North 9.2 mph - N/A   Mostly Cloudy
6:46 PM 35.6 °F 28.0 °F 19.4 °F 52% 29.74 in 30.0 mi NNE 10.4 mph - N/A   Mostly Cloudy
7:11 PM 35.6 °F 32.8 °F 19.4 °F 52% 29.76 in 10.0 mi SE 3.5 mph - N/A   Light Drizzle
7:17 PM 33.8 °F 24.3 °F 19.4 °F 56% 29.78 in 5.0 mi SSW 13.8 mph 23.0 mph N/A Snow Light Snow
7:28 PM 32.0 °F 23.0 °F 24.8 °F 75% 29.79 in 2.5 mi SSW 11.5 mph - N/A Snow Light Snow
8:48 PM 28.4 °F 23.3 °F 24.8 °F 86% 29.83 in 20.0 mi East 4.6 mph - N/A   Scattered Clouds
9:48 PM 28.4 °F 17.5 °F 15.8 °F 59% 29.88 in 20.0 mi WNW 13.8 mph 18.4 mph N/A   Scattered Clouds
10:16 PM 28.4 °F 21.2 °F 23.0 °F 80% 29.86 in 10.0 mi South 6.9 mph - N/A   Mostly Cloudy
10:34 PM 28.4 °F - 23.0 °F 80% 29.86 in 10.0 mi Calm Calm - N/A   Overcast
10:56 PM 28.4 °F 22.2 °F 23.0 °F 80% 29.87 in 10.0 mi SE 5.8 mph - N/A   Scattered Clouds
11:13 PM 28.4 °F 21.2 °F 23.0 °F 80% 29.87 in 10.0 mi SE 6.9 mph - N/A   Mostly Cloudy
11:33 PM 28.4 °F - 23.0 °F 80% 29.87 in 10.0 mi Calm Calm - N/A   Mostly Cloudy
11:54 PM 26.6 °F - 23.0 °F 86% 29.87 in 10.0 mi Calm Calm - N/A   Overcast